| time (UTC) | temp F | wind direction | speed knots | gust knots | rain 1hr in | rain 24hr in | rain mn in | humidity % | barometer mb |
| 20260906193051 | 82 | 76 | 5.2 | 9.6 | 0.00 | 0.00 | 0.00 | 72 | 1015.1 |
| 20260906191549 | 81 | 95 | 6.1 | 9.6 | 0.00 | 0.00 | 0.00 | 74 | 1015.1 |
| 20260906190053 | 81 | 123 | 5.2 | 9.6 | 0.00 | 0.00 | 0.00 | 75 | 1015.2 |
| 20260906184621 | 80 | 92 | 5.2 | 8.7 | 0.00 | 0.00 | 0.00 | 76 | 1015.2 |
| 20260906183053 | 79 | 156 | 3.5 | 7.8 | 0.00 | 0.00 | 0.00 | 78 | 1015.2 |
| 20260906181551 | 78 | 121 | 4.3 | 12.2 | 0.00 | 0.00 | 0.00 | 79 | 1015.4 |
| 20260906180046 | 78 | 139 | 6.1 | 12.2 | 0.00 | 0.00 | 0.00 | 80 | 1014.8 |
| 20260906174552 | 77 | 166 | 6.1 | 18.2 | 0.00 | 0.00 | 0.00 | 80 | 1015.4 |
| 20260906173057 | 77 | 217 | 9.6 | 17.4 | 0.00 | 0.00 | 0.00 | 80 | 1015.4 |
| 20260906171550 | 75 | 178 | 8.7 | 16.5 | 0.00 | 0.00 | 0.00 | 83 | 1015.5 |
| 20260906170044 | 75 | 171 | 4.3 | 11.3 | 0.00 | 0.00 | 0.00 | 85 | 1016.0 |
| 20260906164551 | 75 | 161 | 2.6 | 9.6 | 0.00 | 0.00 | 0.00 | 84 | 1016.4 |
| 20260906163051 | 75 | 192 | 1.7 | 4.3 | 0.00 | 0.00 | 0.00 | 82 | 1016.7 |
| 20260906161550 | 75 | 24 | 0.9 | 3.5 | 0.00 | 0.00 | 0.00 | 82 | 1017.3 |
| 20260906160046 | 75 | 0 | 0.0 | 2.6 | 0.00 | 0.00 | 0.00 | 83 | 1017.2 |
| 20260906154545 | 75 | 88 | 0.9 | 3.5 | 0.00 | 0.00 | 0.00 | 84 | 1017.0 |
| 20260906153053 | 75 | 44 | 0.0 | 4.3 | 0.00 | 0.00 | 0.00 | 85 | 1017.1 |
| 20260906151552 | 74 | 11 | 2.6 | 7.0 | 0.00 | 0.00 | 0.00 | 85 | 1017.2 |
| 20260906150045 | 75 | 336 | 2.6 | 8.7 | 0.00 | 0.00 | 0.00 | 84 | 1017.2 |
| 20260906144553 | 75 | 344 | 1.7 | 4.3 | 0.00 | 0.00 | 0.00 | 84 | 1016.9 |
| 20260906143050 | 75 | 360 | 1.7 | 7.0 | 0.00 | 0.00 | 0.00 | 84 | 1017.1 |
| 20260906141550 | 75 | 24 | 2.6 | 7.0 | 0.00 | 0.00 | 0.00 | 84 | 1017.1 |
| 20260906140051 | 75 | 342 | 2.6 | 6.1 | 0.00 | 0.00 | 0.00 | 84 | 1017.0 |
| 20260906134602 | 75 | 343 | 2.6 | 8.7 | 0.00 | 0.00 | 0.00 | 85 | 1017.0 |
| 20260906133056 | 75 | 338 | 3.5 | 7.8 | 0.00 | 0.00 | 0.00 | 85 | 1016.8 |
| 20260906131601 | 75 | 318 | 3.5 | 10.4 | 0.00 | 0.00 | 0.00 | 84 | 1016.7 |
| 20260906130057 | 75 | 344 | 5.2 | 9.6 | 0.00 | 0.00 | 0.00 | 84 | 1016.6 |
| 20260906124558 | 74 | 331 | 5.2 | 8.7 | 0.00 | 0.00 | 0.00 | 86 | 1016.6 |
| 20260906123054 | 74 | 308 | 4.3 | 12.2 | 0.00 | 0.00 | 0.00 | 85 | 1016.5 |
| 20260906121604 | 72 | 322 | 10.4 | 20.9 | 0.00 | 0.00 | 0.00 | 90 | 1016.5 |
| 20260906120104 | 72 | 166 | 0.9 | 4.3 | 0.00 | 0.00 | 0.00 | 90 | 1015.2 |
| 20260906114544 | 72 | 147 | 0.9 | 5.2 | 0.00 | 0.00 | 0.00 | 90 | 1015.1 |
| 20260906113056 | 72 | 138 | 2.6 | 4.3 | 0.00 | 0.00 | 0.00 | 90 | 1014.9 |
| 20260906111549 | 72 | 130 | 1.7 | 6.1 | 0.00 | 0.00 | 0.00 | 90 | 1014.5 |
| 20260906110049 | 72 | 124 | 2.6 | 6.1 | 0.00 | 0.00 | 0.00 | 90 | 1014.5 |
| 20260906104545 | 72 | 140 | 1.7 | 4.3 | 0.00 | 0.00 | 0.00 | 90 | 1014.4 |
| 20260906103052 | 72 | 124 | 1.7 | 3.5 | 0.00 | 0.00 | 0.00 | 90 | 1014.5 |
| 20260906101553 | 72 | 128 | 0.9 | 3.5 | 0.00 | 0.00 | 0.00 | 90 | 1014.5 |
| 20260906100049 | 71 | 138 | 1.7 | 3.5 | 0.00 | 0.00 | 0.00 | 90 | 1014.4 |
| 20260906094544 | 72 | 125 | 1.7 | 4.3 | 0.00 | 0.00 | 0.00 | 90 | 1014.2 |
| 20260906093056 | 72 | 133 | 1.7 | 3.5 | 0.00 | 0.00 | 0.00 | 90 | 1014.1 |
| 20260906091549 | 72 | 136 | 0.9 | 2.6 | 0.00 | 0.00 | 0.00 | 90 | 1013.9 |
| 20260906090052 | 72 | 127 | 0.9 | 3.5 | 0.00 | 0.00 | 0.00 | 89 | 1014.0 |
| 20260906084545 | 72 | 153 | 0.9 | 4.3 | 0.00 | 0.00 | 0.00 | 89 | 1014.1 |
| 20260906083044 | 72 | 149 | 0.9 | 3.5 | 0.00 | 0.00 | 0.00 | 89 | 1014.2 |
| 20260906081553 | 72 | 137 | 0.9 | 3.5 | 0.00 | 0.00 | 0.00 | 89 | 1014.1 |
| 20260906080052 | 73 | 151 | 0.9 | 4.3 | 0.00 | 0.00 | 0.00 | 89 | 1014.1 |
| 20260906074550 | 73 | 140 | 1.7 | 5.2 | 0.00 | 0.00 | 0.00 | 89 | 1014.2 |
| 20260906073055 | 73 | 135 | 1.7 | 4.3 | 0.00 | 0.00 | 0.00 | 89 | 1014.2 |
| 20260906071552 | 73 | 137 | 0.9 | 3.5 | 0.00 | 0.00 | 0.00 | 89 | 1014.2 |
| 20260906070051 | 73 | 153 | 0.9 | 4.3 | 0.00 | 0.00 | 0.00 | 89 | 1014.2 |
| 20260906064549 | 73 | 159 | 0.9 | 4.3 | 0.00 | 0.00 | 0.00 | 89 | 1014.0 |
| 20260906063056 | 74 | 134 | 1.7 | 6.1 | 0.00 | 0.00 | 0.00 | 88 | 1013.8 |
| 20260906061601 | 74 | 145 | 1.7 | 6.1 | 0.00 | 0.00 | 0.00 | 87 | 1013.9 |
| 20260906060057 | 75 | 146 | 1.7 | 6.1 | 0.00 | 0.00 | 0.00 | 86 | 1014.2 |
| 20260906054549 | 75 | 147 | 1.7 | 5.2 | 0.00 | 0.00 | 0.00 | 87 | 1014.2 |
| 20260906053055 | 75 | 125 | 1.7 | 4.3 | 0.00 | 0.00 | 0.00 | 86 | 1014.2 |
| 20260906051606 | 76 | 135 | 0.9 | 5.2 | 0.00 | 0.00 | 0.00 | 86 | 1014.2 |
| 20260906050049 | 76 | 101 | 0.9 | 3.5 | 0.00 | 0.00 | 0.00 | 85 | 1014.2 |
| 20260906044603 | 76 | 114 | 0.9 | 5.2 | 0.00 | 0.00 | 0.00 | 85 | 1014.2 |
| 20260906043053 | 77 | 138 | 0.9 | 3.5 | 0.00 | 0.00 | 0.00 | 85 | 1014.2 |
| 20260906041554 | 77 | 0 | 0.9 | 3.5 | 0.00 | 0.00 | 0.00 | 84 | 1014.1 |
| 20260906040052 | 77 | 116 | 1.7 | 6.1 | 0.00 | 0.00 | 0.00 | 84 | 1014.1 |
| 20260906034550 | 78 | 123 | 1.7 | 6.1 | 0.00 | 0.00 | 0.00 | 83 | 1014.0 |
| 20260906033056 | 79 | 192 | 0.9 | 5.2 | 0.00 | 0.00 | 0.00 | 81 | 1013.7 |
| 20260906031550 | 80 | 148 | 1.7 | 4.3 | 0.00 | 0.00 | 0.00 | 79 | 1013.7 |
| 20260906030050 | 82 | 186 | 2.6 | 7.8 | 0.00 | 0.00 | 0.00 | 77 | 1013.6 |
| 20260906024555 | 82 | 165 | 6.1 | 9.6 | 0.00 | 0.00 | 0.00 | 77 | 1013.4 |
| 20260906023053 | 81 | 175 | 5.2 | 8.7 | 0.00 | 0.00 | 0.00 | 79 | 1013.0 |
| 20260906021551 | 81 | 155 | 3.5 | 5.2 | 0.00 | 0.00 | 0.00 | 80 | 1013.0 |
| 20260906020049 | 81 | 148 | 1.7 | 5.2 | 0.00 | 0.00 | 0.00 | 79 | 1013.0 |
| 20260906014604 | 82 | 161 | 1.7 | 4.3 | 0.00 | 0.00 | 0.00 | 78 | 1012.7 |
| 20260906013054 | 83 | 244 | 1.7 | 6.1 | 0.00 | 0.00 | 0.00 | 75 | 1012.3 |
| 20260906011554 | 84 | 134 | 0.9 | 5.2 | 0.00 | 0.00 | 0.00 | 73 | 1012.1 |
| 20260906004552 | 87 | 152 | 0.9 | 4.3 | 0.00 | 0.00 | 0.00 | 69 | 1012.2 |
| 20260906003050 | 89 | 131 | 2.6 | 7.0 | 0.00 | 0.00 | 0.00 | 67 | 1012.1 |
| 20260906001549 | 91 | 167 | 2.6 | 7.0 | 0.00 | 0.00 | 0.00 | 65 | 1012.1 |
| 20260906000045 | 92 | 166 | 1.7 | 8.7 | 0.00 | 0.00 | 0.00 | 61 | 1012.0 |
| 20260905234545 | 93 | 182 | 6.1 | 13.0 | 0.00 | 0.00 | 0.00 | 59 | 1012.1 |
| 20260905233051 | 94 | 192 | 7.8 | 14.8 | 0.00 | 0.00 | 0.00 | 57 | 1011.8 |
| 20260905231548 | 95 | 168 | 7.0 | 14.8 | 0.00 | 0.00 | 0.00 | 55 | 1011.8 |
| 20260905230045 | 95 | 232 | 7.8 | 13.9 | 0.00 | 0.00 | 0.00 | 55 | 1011.6 |
| 20260905224552 | 95 | 188 | 7.8 | 13.9 | 0.00 | 0.00 | 0.00 | 55 | 1011.7 |
| 20260905223051 | 95 | 115 | 4.3 | 15.6 | 0.00 | 0.00 | 0.00 | 56 | 1011.9 |
| 20260905221547 | 95 | 128 | 8.7 | 13.0 | 0.00 | 0.00 | 0.00 | 55 | 1012.1 |
| 20260905220053 | 95 | 137 | 5.2 | 10.4 | 0.00 | 0.00 | 0.00 | 55 | 1012.2 |
| 20260905214549 | 95 | 188 | 7.0 | 13.0 | 0.00 | 0.00 | 0.00 | 56 | 1012.3 |
| 20260905213048 | 95 | 134 | 4.3 | 14.8 | 0.00 | 0.00 | 0.00 | 57 | 1012.6 |
| 20260905211553 | 95 | 193 | 7.0 | 12.2 | 0.00 | 0.00 | 0.00 | 55 | 1012.7 |
| 20260905210107 | 95 | 192 | 7.0 | 14.8 | 0.00 | 0.00 | 0.00 | 55 | 1012.9 |
| 20260905204600 | 94 | 162 | 5.2 | 12.2 | 0.00 | 0.00 | 0.00 | 58 | 1013.2 |
| 20260905203058 | 95 | 63 | 4.3 | 13.0 | 0.00 | 0.00 | 0.00 | 57 | 1013.4 |
| 20260905201552 | 94 | 109 | 4.3 | 13.9 | 0.00 | 0.00 | 0.00 | 57 | 1013.7 |
| 20260905200056 | 94 | 138 | 5.2 | 11.3 | 0.00 | 0.00 | 0.00 | 60 | 1013.8 |
| 20260905194548 | 93 | 129 | 7.0 | 11.3 | 0.00 | 0.00 | 0.00 | 61 | 1014.0 |